Tracking 18785 objects as of 20-August-2017
HD Live streaming from Space Station
objects crossing your sky now

COSMOS 2345

Track COSMOS 2345 now!
COSMOS 2345 is classified as:


NORAD ID: 24894
Int'l Code: 1997-041A
Perigee: 35,109.8 km
Apogee: 36,526.0 km
Inclination: 13.6 °
Period: 1,437.3 minutes
Semi major axis: 42188 km
RCS: 5.0119 m2 (large)
Launch date: August 14, 1997
Source: Commonwealth of Independent States (former USSR) (CIS)
Launch site: TYURATAM MISSILE AND SPACE COMPLEX (TTMTR)
Your satellite tracking list
Your tracking list is empty





NASA's NSSDC Master Catalog

Two Line Element Set (TLE):
1 24894U 97041A   17231.32013612 -.00000388  00000-0  00000+0 0  9999
2 24894  13.6490  24.6579 0167841 218.4755 144.7371  1.00185738 73318
Source of the keplerian elements: AFSPC